Погода в Мордое

Россия / Забайкальский край     49°41′44″N   112°01′23″E
темп.,
°C
ветер,
м/с
пор.,
м/с
влажн.,
%
обл.,
%
осадки,
мм/ч
давл.,
гПа
погр.,
м
3 марта, ср
ср300:00−14з11864 0.0 101121
03:00−14сз118650 0.0 101020
06:00−15ссз128567 0.0 100920
09:00−12ссз228583 0.1 100841
12:00−5сз1278100 0.1 1007320
15:00−3юз236773 0.4 1005843
18:00−4ююз1281100 0.6 100696
21:00−9сз129386 0.8 100922
4 марта, чт
чт400:00−13ссз228646 0.1 101321
03:00−16ссз238932 0.1 101622
06:00−16сз378996 0.0 1018160
09:00−18сз4157577 0.0 1022732
12:00−14сз814590 0.0 10241440
15:00−13сз713550 0.0 10251519
18:00−15сз611630 0.0 10281318
21:00−20ссз311844 0.0 1034340
5 марта, пт
пт500:00−23сз22883 0.0 103820
03:00−24сз11892 0.0 104120
06:00−26ссз22860 0.0 104320
09:00−25ссз22790 0.0 104438
12:00−16юз12600 0.0 1040311
15:00−13ю23640 0.0 1036399
18:00−14ю238361 0.0 1034212
21:00−19ююв119546 0.0 103620
6 марта, сб
сб600:00−20зюз019657 0.0 103520
03:00−20з119642 0.0 103320
06:00−20зсз119467 0.0 103120
09:00−18зсз118754 0.0 102920
12:00−10з1267100 0.0 1025190
15:00−5зюз236282 0.0 1024355
18:00−4з23730 0.0 102491
21:00−10сз22810 0.0 102821
7 марта, вс
вс700:00−13ссз22854 0.0 102921
03:00−14ссз12842 0.0 102921
06:00−15сз12850 0.0 102920
09:00−14сз12800 0.0 102920
12:00−5зюз11570 0.0 1026208
15:00−2ююз11550 0.0 1024376
18:00−4ю12750 0.0 102379
21:00−11юв00868 0.0 102621